Vertical_Velocity
4 1 -5 14 1 -1 3 1 1 -3 7 -9 -8 -23 15 3 -5 0 1 -2 -1 -6 1 -2 -7 -5 1 1 -6 -1 3 2 4 -9 -2 -9 -3 -14 2 -5 5 -1 4 4
1 -12 9 3 2 2 2 0 -8 -4 1 0 -11 -35 3 -3 -3 4 3 2 -1 -4 -2 -6 -9 -10 -4 -10 -10 -10 -8 9 -6 -2 -7 -4 31 -7 21 -7 -10 1 -0 -2
-1 -0 -1 3 -0 1 2 -4 -2 2 -5 -1 -6 -37 -14 1 2 3 3 1 -0 -6 -12 -4 -4 1 -8 -22 10 5 -0 7 -4 5 8 1 7 33 14 76 -7 -13 2 3
-10 5 1 3 -2 8 -1 8 1 -0 2 -7 -2 -18 -7 -3 8 4 3 -0 -5 -10 -3 -9 -12 1 -11 -3 -5 -4 -8 4 3 18 -12 -6 -0 -22 29 -14 -8 -0 4 -2
-8 -1 -1 -2 1 6 -1 2 2 3 1 6 -1 4 4 -1 4 2 -1 -3 -2 -8 -12 -5 -11 -4 4 -6 -6 -8 -3 -3 9 -12 10 -6 1 -4 0 -9 32 6 12 -0
-2 8 -3 1 1 3 5 -2 2 10 8 7 -10 -1 1 7 4 3 3 3 -4 -5 -4 -13 9 -6 -0 0 -0 -1 -9 -12 -3 -1 9 -4 2 -8 -2 27 -50 4 15 -11
-1 2 0 1 0 1 2 2 -3 -3 7 -7 2 13 -13 5 2 2 0 -3 0 1 -3 -10 -8 -2 -12 4 1 -2 -1 -5 -3 -11 4 3 5 13 -29 9 99 -1 15 -23
-1 -6 5 1 -2 4 -2 5 -1 -1 -0 -1 8 -5 3 4 7 10 13 15 7 -13 -12 -15 -17 -2 -5 -6 -1 6 -3 -2 4 -2 -7 3 15 1 3 28 -20 29 74 7
1 2 -4 -6 10 7 4 1 5 2 -6 11 -7 -2 13 7 1 1 -4 -4 -10 -7 -6 -14 6 -29 -23 -7 -4 -5 3 -1 12 -0 8 4 10 -2 -5 0 -22 1 95 6
-5 -5 -2 4 -6 -6 8 -1 -3 4 1 -1 -2 -1 0 -18 -17 -11 -15 -11 -8 -2 -7 -5 1 -22 -23 -8 -11 -14 -7 -5 7 2 1 -3 -1 8 1 -11 4 -9 75 -17
5 3 -7 -1 4 5 3 3 0 -1 3 2 1 -7 8 6 1 -1 -3 -4 -4 -4 -4 -1 -2 4 -15 0 0 -9 3 -16 4 7 2 -5 -3 -4 27 4 14 17 -3 16
9 17 -4 -9 2 1 -1 -3 -1 -2 -5 -2 4 -24 0 23 -6 -14 -5 -3 -2 2 -2 -1 -2 2 -12 9 -1 7 5 -1 -6 8 3 -16 -11 -8 -10 -22 -2 -3 34 -14
-2 3 -1 -5 1 -6 -1 6 -1 6 4 -5 5 -18 -11 1 -4 -5 -2 -4 -2 2 -2 -3 3 -2 -4 8 7 -18 -4 4 -1 8 20 -10 -2 -16 -42 -22 -32 -4 32 -6
1 -3 3 2 -2 4 -2 -0 13 11 6 -6 -9 -27 -8 -7 -2 -8 -8 -0 -3 0 6 5 2 7 4 11 0 9 -18 -0 -4 7 1 -0 8 -5 6 -28 -16 -3 74 -2
3 -8 3 -1 -1 2 1 -2 -7 10 2 11 -11 -3 10 2 -4 -6 -3 2 1 1 1 1 1 5 -9 1 53 60 -12 -9 8 -3 -5 -7 -14 36 9 -32 9 54 -10 -14
-1 -15 1 -9 3 -1 -5 -2 -4 5 2 5 8 -0 -2 3 2 3 3 1 1 -0 1 4 -2 2 -14 5 -18 54 40 95 -3 16 22 25 25 9 2 36 20 21 1 1
10 3 5 -3 -2 -0 -6 -1 1 6 1 4 2 4 0 -3 0 -3 -0 4 -1 0 -5 -9 -1 -0 10 -8 5 -5 27 17 34 58 27 28 30 7 -14 75 13 6 -5 -5
-4 7 14 -2 -3 -3 1 -1 -3 3 2 1 4 2 0 -1 2 -2 6 -1 -0 -4 -7 -5 -1 3 5 7 -2 16 15 3 2 -7 -3 -11 -9 -25 -30 -2 2 1 15 1
15 10 6 2 -1 -6 3 5 6 7 -1 2 -0 2 0 -2 11 7 9 8 -6 -3 -5 -1 -2 1 -7 -6 1 4 13 -8 11 -1 -44 10 -28 -25 -2 2 -6 -1 -3 -19
-7 9 13 1 2 -2 1 6 6 5 5 2 -0 -1 -8 -5 -15 -1 -4 -2 -1 -2 -5 -10 -6 -1 -2 -5 1 8 -3 -5 10 -11 19 33 24 12 -0 -10 3 -0 -18 10
-18 -1 0 -1 4 10 7 0 -3 9 -3 0 -2 -2 -2 -5 -4 -9 -7 8 -2 -10 -5 -0 -1 -10 -12 7 -5 -13 2 22 16 30 8 19 31 49 7 10 3 6 -2 13
3 2 9 -4 0 1 -0 -3 -8 2 7 -1 2 -3 -2 2 4 -1 -2 -5 -3 -6 -6 -7 -4 -6 -1 -13 -10 -0 -7 3 16 5 -6 -9 -3 9 5 33 43 42 -1 -9
-3 6 4 5 1 -0 -0 3 2 1 -2 -0 -4 -0 -4 -2 -0 -2 -3 -4 2 -7 -3 -1 -3 2 -2 0 7 1 -0 8 10 9 3 -0 6 -1 -8 25 2 -9 53 -2
4 5 8 8 1 1 4 2 4 -0 -0 0 -1 -4 -2 -2 -5 1 -2 0 0 0 -2 -1 -5 1 1 3 1 2 4 -1 -5 -2 -6 13 11 2 6 -0 1 13 34 10
1 2 1 2 6 3 5 1 1 3 0 1 2 -4 -4 -1 0 -1 -3 1 -0 -0 -3 2 4 -1 1 0 3 5 3 1 5 -7 -7 -2 4 8 7 5 -2 -3 -0 11
1 -1 -1 -1 -0 1 4 0 -0 -1 0 0 -2 7 -2 -2 -2 2 1 -1 -0 1 1 -6 -1 0 5 3 3 2 2 3 1 3 -1 -3 4 1 -2 3 -2 3 3 14
Height
3022 3021 3017 3020 3019 3019 3019 3019 3017 3021 3022 3010 3008 2992 3000 3008 3005 3004 3004 3004 3004 3003 3004 3006 3007 3008 3009 3008 3006 3012 3016 3018 3022 3028 3032 3037 3043 3047 3053 3058 3068 3075 3083 3088
3019 3015 3016 3015 3014 3014 3014 3013 3013 3015 3016 3008 3005 2983 2987 2996 2997 2998 2997 2998 2996 2994 2993 2992 2991 2991 2991 2993 2992 2990 2993 2999 3004 3008 3016 3025 3031 3037 3036 3046 3054 3062 3072 3079
3014 3014 3012 3012 3011 3010 3009 3008 3009 3010 3009 3006 3000 2980 2982 2984 2988 2990 2990 2989 2988 2985 2982 2980 2978 2974 2967 2963 2964 2967 2969 2975 2981 2990 2996 3007 3015 3016 3026 3024 3037 3046 3058 3067
3010 3009 3009 3008 3008 3007 3005 3004 3004 3005 3006 3006 3003 2987 2975 2977 2981 2983 2983 2981 2979 2977 2974 2969 2964 2955 2947 2937 2932 2936 2941 2944 2955 2966 2972 2981 2994 3004 3007 3019 3025 3032 3045 3053
3006 3004 3004 3003 3003 3003 3002 3001 3000 3000 3000 3001 2998 2999 2966 2973 2976 2976 2975 2973 2970 2968 2963 2958 2952 2939 2928 2919 2913 2912 2913 2916 2927 2937 2950 2958 2971 2989 3004 3004 3001 3018 3029 3038
2999 3000 2997 2996 2997 2998 2998 2997 2995 2993 2995 2993 2986 2988 2967 2969 2971 2969 2968 2966 2961 2957 2951 2946 2937 2926 2917 2901 2896 2894 2897 2901 2908 2912 2929 2937 2950 2967 2985 2991 2997 2998 3011 3024
2997 2992 2991 2992 2992 2994 2995 2994 2992 2992 2989 2986 2979 2981 2966 2968 2967 2964 2960 2956 2951 2945 2936 2927 2916 2908 2898 2884 2883 2881 2882 2886 2892 2896 2907 2921 2932 2945 2971 2978 2972 2989 2995 3010
2995 2991 2990 2990 2989 2991 2991 2992 2992 2993 2985 2982 2982 2969 2962 2963 2962 2959 2958 2951 2944 2938 2930 2919 2906 2892 2886 2877 2869 2869 2868 2870 2873 2879 2890 2902 2916 2928 2941 2958 2969 2975 2976 2999
2993 2988 2988 2989 2988 2990 2989 2990 2990 2987 2981 2979 2969 2961 2962 2958 2955 2951 2945 2941 2937 2931 2922 2910 2896 2886 2869 2858 2856 2856 2856 2856 2858 2862 2873 2886 2899 2908 2921 2942 2954 2965 2973 2991
2992 2989 2987 2986 2987 2988 2988 2989 2987 2985 2980 2970 2959 2959 2956 2952 2950 2944 2939 2934 2929 2922 2912 2904 2891 2879 2862 2841 2845 2847 2847 2846 2850 2853 2863 2875 2886 2896 2906 2925 2939 2942 2952 2983
2989 2987 2987 2986 2986 2986 2986 2985 2985 2985 2981 2975 2969 2958 2955 2952 2948 2940 2935 2931 2923 2914 2904 2895 2885 2874 2859 2839 2839 2838 2838 2840 2843 2849 2855 2865 2876 2883 2893 2912 2927 2936 2938 2968
2988 2985 2983 2982 2982 2981 2981 2981 2981 2982 2981 2979 2977 2950 2953 2951 2945 2940 2932 2925 2919 2911 2901 2891 2880 2868 2858 2838 2830 2830 2830 2832 2836 2843 2850 2858 2866 2871 2873 2895 2920 2919 2938 2957
2987 2986 2983 2980 2981 2979 2980 2978 2978 2978 2975 2972 2973 2952 2951 2948 2944 2938 2927 2920 2913 2906 2896 2886 2876 2864 2851 2836 2819 2816 2824 2829 2832 2837 2840 2849 2856 2860 2866 2888 2912 2913 2927 2947
2986 2982 2982 2979 2978 2978 2976 2975 2974 2973 2970 2965 2961 2951 2949 2943 2937 2931 2924 2916 2909 2902 2891 2881 2870 2858 2847 2831 2817 2807 2811 2820 2825 2828 2833 2837 2850 2857 2863 2886 2898 2912 2920 2936
2982 2977 2976 2972 2972 2971 2968 2966 2965 2964 2962 2960 2954 2951 2948 2942 2935 2928 2920 2913 2904 2895 2885 2874 2863 2851 2843 2827 2811 2807 2807 2810 2816 2822 2829 2833 2836 2846 2864 2886 2893 2899 2913 2930
2975 2970 2969 2964 2965 2965 2960 2959 2956 2954 2953 2950 2949 2948 2945 2940 2933 2926 2918 2909 2901 2891 2881 2871 2863 2852 2844 2828 2811 2803 2799 2795 2802 2813 2821 2829 2841 2856 2867 2874 2882 2894 2910 2924
2969 2966 2965 2960 2961 2960 2956 2952 2950 2951 2948 2947 2945 2943 2939 2936 2930 2922 2915 2908 2899 2890 2882 2872 2862 2852 2844 2831 2818 2809 2797 2800 2805 2814 2826 2833 2845 2849 2866 2871 2876 2890 2904 2918
2962 2962 2962 2957 2959 2961 2951 2950 2949 2948 2945 2945 2943 2940 2937 2932 2929 2922 2915 2907 2899 2890 2882 2873 2863 2852 2843 2834 2827 2818 2812 2814 2817 2824 2827 2835 2844 2852 2860 2865 2872 2888 2899 2912
2960 2960 2958 2955 2954 2952 2950 2949 2947 2944 2944 2941 2940 2937 2933 2929 2924 2920 2914 2906 2899 2891 2883 2875 2866 2856 2847 2835 2832 2825 2817 2808 2810 2819 2826 2837 2843 2848 2857 2863 2875 2883 2894 2906
2962 2960 2959 2955 2952 2951 2947 2946 2944 2942 2940 2939 2937 2934 2929 2924 2918 2915 2909 2903 2897 2892 2885 2876 2868 2859 2854 2846 2836 2835 2834 2828 2826 2826 2834 2827 2829 2840 2851 2860 2870 2879 2883 2899
2960 2958 2957 2952 2949 2946 2945 2944 2941 2941 2945 2937 2934 2931 2929 2924 2921 2913 2907 2903 2897 2890 2883 2877 2871 2863 2855 2852 2846 2839 2838 2836 2832 2825 2821 2818 2821 2831 2841 2853 2865 2874 2884 2892
2965 2961 2956 2955 2951 2946 2944 2943 2943 2943 2939 2935 2933 2929 2926 2923 2919 2914 2908 2901 2894 2888 2885 2879 2872 2868 2862 2858 2853 2848 2841 2834 2829 2823 2820 2823 2826 2831 2840 2849 2859 2867 2877 2883
2965 2963 2961 2960 2954 2949 2945 2943 2941 2938 2935 2933 2930 2927 2922 2918 2915 2910 2905 2899 2893 2887 2882 2878 2875 2870 2867 2862 2858 2854 2849 2840 2833 2829 2827 2833 2832 2832 2839 2842 2853 2862 2869 2877
2962 2960 2957 2955 2952 2948 2944 2942 2939 2935 2932 2928 2925 2921 2918 2914 2910 2906 2902 2897 2891 2885 2881 2878 2873 2869 2866 2862 2857 2853 2848 2844 2841 2838 2839 2840 2839 2838 2843 2845 2849 2855 2864 2873
2959 2956 2953 2950 2947 2944 2942 2938 2935 2931 2927 2923 2920 2916 2913 2909 2905 2901 2897 2893 2888 2883 2877 2873 2871 2867 2863 2860 2857 2852 2849 2848 2845 2845 2843 2843 2844 2844 2844 2846 2851 2856 2862 2869
2956 2953 2951 2947 2944 2940 2938 2933 2930 2926 2922 2918 2915 2913 2909 2904 2900 2897 2893 2889 2885 2882 2877 2872 2867 2864 2860 2856 2853 2851 2848 2846 2848 2849 2849 2848 2847 2848 2849 2851 2854 2855 2858 2859